When you browse on this site, cookies collect data to enhance your experience and personalize the content and advertising you see.
Visit our Privacy Policy to learn more. By continuing to use the site, you agree to this use of cookies and data.
  • In Switzerland
  • List of Countries
  • For 7 days
  • Water Temperature
  • Weather Map
  • Weather Widgets
  • user-avatar
    Login

    Hourly Weather Ballycastle

    Today, 10 April, Friday

    Time Temperature Precipitation Wind Pressure Humidity
    00:00 +8°C° 0 mm 5 mps 764 mmHg 95%
    01:00 +8°C° 0 mm 5 mps 764 mmHg 95%
    02:00 +8°C° 0 mm 5 mps 763 mmHg 95%
    03:00 +7°C° 0 mm 5 mps 763 mmHg 96%
    04:00 +7°C° 0 mm 4 mps 763 mmHg 96%
    05:00 +7°C° 0 mm 4 mps 763 mmHg 95%
    06:00 +7°C° 0 mm 4 mps 763 mmHg 95%
    07:00 +10°C° 0 mm 4 mps 763 mmHg 93%
    08:00 +10°C° 0 mm 5 mps 763 mmHg 90%
    09:00 +12°C° 0 mm 5 mps 763 mmHg 88%
    10:00 +13°C° 0 mm 5 mps 763 mmHg 86%
    11:00 +14°C° 0 mm 5 mps 763 mmHg 85%
    12:00 +14°C° 0 mm 5 mps 763 mmHg 83%
    13:00 +15°C° 0 mm 5 mps 762 mmHg 82%
    14:00 +15°C° 0 mm 5 mps 762 mmHg 81%
    15:00 +15°C° 0 mm 4 mps 762 mmHg 81%
    16:00 +15°C° 0.3 mm 4 mps 762 mmHg 84%
    17:00 +14°C° 0.3 mm 4 mps 762 mmHg 87%
    18:00 +14°C° 0.3 mm 3 mps 762 mmHg 90%
    19:00 +13°C° 0.1 mm 3 mps 762 mmHg 91%
    20:00 +13°C° 0.1 mm 2 mps 762 mmHg 92%
    21:00 +12°C° 0.1 mm 2 mps 762 mmHg 94%
    22:00 +12°C° 0 mm 2 mps 762 mmHg 94%
    23:00 +12°C° 0 mm 1 mps 762 mmHg 94%

    Tomorrow, 11 April, Saturday

    Time Temperature Precipitation Wind Pressure Humidity
    00:00 +11°C° 0 mm 1 mps 762 mmHg 95%
    01:00 +10°C° 0.1 mm 2 mps 762 mmHg 95%
    02:00 +10°C° 0.1 mm 2 mps 762 mmHg 95%
    03:00 +10°C° 0.1 mm 2 mps 762 mmHg 95%
    04:00 +10°C° 0 mm 3 mps 762 mmHg 96%
    05:00 +10°C° 0 mm 3 mps 762 mmHg 96%
    06:00 +10°C° 0 mm 4 mps 763 mmHg 96%
    07:00 +10°C° 0 mm 4 mps 763 mmHg 94%
    08:00 +10°C° 0 mm 4 mps 763 mmHg 92%
    09:00 +10°C° 0 mm 4 mps 763 mmHg 91%
    10:00 +11°C° 0 mm 4 mps 763 mmHg 85%
    11:00 +11°C° 0 mm 4 mps 764 mmHg 80%
    12:00 +12°C° 0 mm 4 mps 764 mmHg 74%
    13:00 +12°C° 0 mm 4 mps 764 mmHg 73%
    14:00 +12°C° 0 mm 4 mps 763 mmHg 71%
    15:00 +12°C° 0 mm 3 mps 763 mmHg 69%
    16:00 +12°C° 0 mm 3 mps 763 mmHg 73%
    17:00 +13°C° 0 mm 2 mps 763 mmHg 77%
    18:00 +12°C° 0 mm 2 mps 763 mmHg 81%
    19:00 +10°C° 0 mm 2 mps 762 mmHg 81%
    20:00 +11°C° 0 mm 1 mps 762 mmHg 81%
    21:00 +10°C° 0 mm 1 mps 762 mmHg 81%
    22:00 +9°C° 0 mm 2 mps 762 mmHg 80%
    23:00 +9°C° 0 mm 2 mps 761 mmHg 79%

    Day after tomorrow, 12 April, Sunday

    Time Temperature Precipitation Wind Pressure Humidity
    00:00 +9°C° 0 mm 3 mps 761 mmHg 78%
    01:00 +9°C° 0 mm 3 mps 760 mmHg 77%
    02:00 +9°C° 0 mm 2 mps 759 mmHg 77%
    03:00 +9°C° 0 mm 2 mps 758 mmHg 76%
    04:00 +9°C° 0.4 mm 3 mps 758 mmHg 82%
    05:00 +8°C° 0.4 mm 3 mps 757 mmHg 88%
    06:00 +7°C° 0.4 mm 4 mps 756 mmHg 93%
    07:00 +8°C° 0.7 mm 3 mps 756 mmHg 94%
    08:00 +8°C° 0.7 mm 3 mps 755 mmHg 95%
    09:00 +8°C° 0.7 mm 3 mps 755 mmHg 96%
    10:00 +8°C° 1.6 mm 3 mps 755 mmHg 96%
    11:00 +8°C° 1.6 mm 3 mps 755 mmHg 96%
    12:00 +7°C° 1.6 mm 4 mps 755 mmHg 97%
    13:00 +8°C° 1.6 mm 3 mps 754 mmHg 97%
    14:00 +8°C° 1.6 mm 3 mps 754 mmHg 97%
    15:00 +8°C° 1.6 mm 3 mps 754 mmHg 97%
    16:00 +7°C° 0.5 mm 4 mps 754 mmHg 97%
    17:00 +7°C° 0.5 mm 5 mps 754 mmHg 96%
    18:00 +6°C° 0.5 mm 7 mps 754 mmHg 95%
    19:00 +6°C° 0.1 mm 8 mps 755 mmHg 93%
    20:00 +6°C° 0.1 mm 10 mps 756 mmHg 91%
    21:00 +5°C° 0.1 mm 12 mps 757 mmHg 89%
    22:00 +4°C° 0 mm 11 mps 758 mmHg 87%
    23:00 +4°C° 0 mm 11 mps 758 mmHg 85%

    13 April, Monday

    Time Temperature Precipitation Wind Pressure Humidity
    00:00 +4°C° 0 mm 11 mps 759 mmHg 83%
    01:00 +3°C° 0 mm 11 mps 760 mmHg 82%
    02:00 +3°C° 0 mm 10 mps 760 mmHg 82%
    03:00 +3°C° 0 mm 10 mps 761 mmHg 81%
    04:00 +3°C° 0 mm 10 mps 762 mmHg 80%
    05:00 +3°C° 0 mm 10 mps 762 mmHg 79%
    06:00 +3°C° 0 mm 9 mps 763 mmHg 78%
    07:00 +3°C° 0 mm 9 mps 764 mmHg 75%
    08:00 +3°C° 0 mm 9 mps 765 mmHg 72%
    09:00 +3°C° 0 mm 9 mps 765 mmHg 70%
    10:00 +5°C° 0 mm 9 mps 766 mmHg 68%
    11:00 +5°C° 0 mm 8 mps 766 mmHg 66%
    12:00 +6°C° 0 mm 8 mps 767 mmHg 64%
    13:00 +6°C° 0 mm 7 mps 767 mmHg 64%
    14:00 +6°C° 0 mm 7 mps 767 mmHg 64%
    15:00 +8°C° 0 mm 6 mps 767 mmHg 64%
    16:00 +7°C° 0 mm 6 mps 767 mmHg 66%
    17:00 +7°C° 0 mm 6 mps 767 mmHg 69%
    18:00 +7°C° 0 mm 6 mps 767 mmHg 71%
    19:00 +5°C° 0 mm 6 mps 767 mmHg 74%
    20:00 +4°C° 0 mm 6 mps 767 mmHg 77%
    21:00 +3°C° 0 mm 6 mps 767 mmHg 80%
    22:00 +2°C° 0 mm 6 mps 767 mmHg 81%
    23:00 +2°C° 0 mm 5 mps 767 mmHg 82%

    14 April, Tuesday

    Time Temperature Precipitation Wind Pressure Humidity
    00:00 +1°C° 0 mm 5 mps 767 mmHg 83%
    01:00 0°C° 0 mm 5 mps 767 mmHg 84%
    02:00 0°C° 0 mm 4 mps 767 mmHg 85%
    03:00 0°C° 0 mm 4 mps 766 mmHg 85%
    04:00 0°C° 0 mm 4 mps 766 mmHg 86%
    05:00 -1°C° 0 mm 4 mps 766 mmHg 86%
    06:00 -1°C° 0 mm 4 mps 766 mmHg 87%
    07:00 +1°C° 0 mm 4 mps 766 mmHg 82%
    08:00 +4°C° 0 mm 4 mps 765 mmHg 76%
    09:00 +5°C° 0 mm 4 mps 765 mmHg 71%
    10:00 +6°C° 0 mm 4 mps 765 mmHg 69%
    11:00 +7°C° 0 mm 4 mps 764 mmHg 66%
    12:00 +8°C° 0 mm 5 mps 764 mmHg 64%
    13:00 +8°C° 0 mm 5 mps 763 mmHg 63%
    14:00 +8°C° 0 mm 5 mps 763 mmHg 62%
    15:00 +9°C° 0 mm 5 mps 762 mmHg 61%
    16:00 +8°C° 0 mm 5 mps 762 mmHg 63%
    17:00 +7°C° 0 mm 4 mps 762 mmHg 65%
    18:00 +7°C° 0 mm 4 mps 761 mmHg 67%
    19:00 +5°C° 0 mm 3 mps 762 mmHg 68%
    20:00 +4°C° 0 mm 3 mps 762 mmHg 69%
    21:00 +4°C° 0 mm 2 mps 762 mmHg 70%
    22:00 +4°C° 0 mm 2 mps 762 mmHg 71%
    23:00 +3°C° 0 mm 3 mps 762 mmHg 72%

    15 April, Wednesday

    Time Temperature Precipitation Wind Pressure Humidity
    00:00 +3°C° 0 mm 3 mps 762 mmHg 73%
    01:00 +2°C° 0 mm 3 mps 761 mmHg 77%
    02:00 +2°C° 0 mm 3 mps 761 mmHg 81%
    03:00 +1°C° 0 mm 4 mps 761 mmHg 85%
    04:00 +1°C° 0 mm 4 mps 761 mmHg 86%
    05:00 +1°C° 0 mm 4 mps 760 mmHg 86%
    06:00 +1°C° 0 mm 4 mps 760 mmHg 86%
    07:00 +3°C° 0 mm 4 mps 760 mmHg 81%
    08:00 +5°C° 0 mm 4 mps 760 mmHg 77%
    09:00 +7°C° 0 mm 4 mps 760 mmHg 72%
    10:00 +8°C° 0 mm 4 mps 760 mmHg 67%
    11:00 +8°C° 0 mm 4 mps 760 mmHg 62%
    12:00 +10°C° 0 mm 4 mps 760 mmHg 57%
    13:00 +10°C° 0 mm 4 mps 760 mmHg 57%
    14:00 +10°C° 0 mm 3 mps 759 mmHg 56%
    15:00 +11°C° 0 mm 3 mps 759 mmHg 56%
    16:00 +10°C° 0 mm 3 mps 759 mmHg 60%
    17:00 +10°C° 0 mm 2 mps 759 mmHg 65%
    18:00 +10°C° 0 mm 1 mps 759 mmHg 69%
    19:00 +9°C° 0 mm 1 mps 759 mmHg 68%
    20:00 +7°C° 0 mm 2 mps 759 mmHg 67%
    21:00 +5°C° 0 mm 2 mps 760 mmHg 67%
    22:00 +5°C° 0 mm 2 mps 760 mmHg 70%
    23:00 +5°C° 0 mm 2 mps 760 mmHg 73%
    Show more